Location: Davayat
(45.9471°N, 3.1105°E)
Time: 17:28:35
(UTC+00:00)

Cosmos 2369 Rocket - Pass Details

Date: 01 December 2020
Orbit: 829 x 852 km, 71.0° (Epoch: 17 January)

Event Time Altitude Azimuth Distance (km) Brightness Sun altitude
Rises 17:50:17 0° 332° (NNW) 3,423 5.6 -17.8°
Reaches altitude 10° 17:52:45 10° 331° (NNW) 2,481 4.8 -18.3°
Maximum altitude 17:58:26 75° 247° (WSW) 876 2.4 -19.2°
Drops below altitude 10° 18:04:03 10° 163° (SSE) 2,449 4.5 -20.2°
Sets 18:06:28 0° 161° (SSE) 3,376 5.3 -20.6°
